Retour au catalogue

SL-16 DEB

ActifLEO
NORAD 23410·DEBRIS·🇷🇺 Russia

Lancé Nov 24, 1994 depuis Baikonur Cosmodrome

Loading…

Prochains Passages (prochaines 24 heures)

TLE

FraisSource: Space-Track

Époque: Sep 14, 2026, 05:31 UTC

1 23410U 94077G   26257.23031602  .00000016  00000-0  57170-4 0  9997
2 23410  70.9814 353.5359 0221384   6.1975  17.4020 13.68725767587996

Suivez SL-16 DEB en temps réel avec AllMySat

Download on the App Store